This is the latest recevied weather packets stored in our database for station/object EA5GTE-12. If no packets are shown the sender has not sent any weather packets the latest 10 day(s).
| Time | Temp. | Humidity | Pressure | Rain* | Wind** | Luminosity | Snow |
|---|---|---|---|---|---|---|---|
| 1787791097 | 18.33° C | 69% | 937.1 hPa | - | - | - | - |
| 1787790197 | 18.89° C | 64% | 937.1 hPa | - | - | - | - |
| 1787789297 | 19.44° C | 63% | 937.3 hPa | - | - | - | - |
| 1787788397 | 19.44° C | 63% | 937 hPa | - | - | - | - |
| 1787787497 | 19.44° C | 60% | 937.4 hPa | - | - | - | - |
| 1787786597 | 19.44° C | 60% | 937.3 hPa | - | - | - | - |
| 1787785697 | 20° C | 58% | 937.2 hPa | - | - | - | - |
| 1787784797 | 20° C | 56% | 937.2 hPa | - | - | - | - |
| 1787783897 | 20.56° C | 53% | 937.2 hPa | - | - | - | - |
| 1787782099 | 21.67° C | 48% | 936.8 hPa | - | - | - | - |
| 1787781199 | 21.67° C | 46% | 936.6 hPa | - | - | - | - |
| 1787780298 | 22.22° C | 45% | 936.3 hPa | - | - | - | - |
| 1787779398 | 22.22° C | 45% | 936.3 hPa | - | - | - | - |
| 1787778498 | 23.33° C | 43% | 936 hPa | - | - | - | - |
| 1787777598 | 23.33° C | 42% | 936 hPa | - | - | - | - |
| 1787776698 | 23.89° C | 43% | 935.9 hPa | - | - | - | - |
| 1787775798 | 23.89° C | 44% | 935.7 hPa | - | - | - | - |
| 1787774898 | 24.44° C | 44% | 935.3 hPa | - | - | - | - |
| 1787773998 | 25° C | 41% | 935.1 hPa | - | - | - | - |
| 1787773098 | 25.56° C | 41% | 934.7 hPa | - | - | - | - |
| 1787772198 | 25.56° C | 39% | 934.5 hPa | - | - | - | - |
| 1787771298 | 26.67° C | 37% | 934.3 hPa | - | - | - | - |
| 1787770398 | 27.22° C | 34% | 934.1 hPa | - | - | - | - |
| 1787769498 | 27.78° C | 31% | 933.8 hPa | - | - | - | - |
| 1787768598 | 28.89° C | 29% | 933.6 hPa | - | - | - | - |
* Rain since midnight (hover to see other rain measurements)
** Current wind speed in m/s (hover to see current wind gust speed)